When you browse on this site, cookies collect data to enhance your experience and personalize the content and advertising you see.
Visit our Privacy Policy to learn more. By continuing to use the site, you agree to this use of cookies and data.
  • In Netherlands
  • List of Countries
  • For 7 days
  • Water Temperature
  • Satellite Maps
  • Weather Map
  • Weather Widgets
  • user-avatar
    Login

    Hourly Weather Oran

    Today, 20 March, Wednesday

    Time Temperature Precipitation Wind Pressure Humidity
    00:00 +10°C° 0 mm 4 mps 757 mmHg 83%
    01:00 +8°C° 0.2 mm 4 mps 757 mmHg 83%
    02:00 +8°C° 0.2 mm 5 mps 757 mmHg 83%
    03:00 +8°C° 0.2 mm 5 mps 757 mmHg 83%
    04:00 +8°C° 0.2 mm 5 mps 757 mmHg 82%
    05:00 +8°C° 0.2 mm 5 mps 757 mmHg 82%
    06:00 +8°C° 0.2 mm 5 mps 757 mmHg 81%
    07:00 +10°C° 0.2 mm 5 mps 758 mmHg 74%
    08:00 +11°C° 0.2 mm 6 mps 758 mmHg 66%
    09:00 +13°C° 0.2 mm 6 mps 758 mmHg 59%
    10:00 +14°C° 0 mm 7 mps 758 mmHg 55%
    11:00 +15°C° 0 mm 7 mps 758 mmHg 51%
    12:00 +16°C° 0 mm 7 mps 758 mmHg 47%
    13:00 +15°C° 0 mm 8 mps 758 mmHg 48%
    14:00 +15°C° 0 mm 9 mps 757 mmHg 49%
    15:00 +15°C° 0 mm 9 mps 757 mmHg 51%
    16:00 +13°C° 0 mm 9 mps 757 mmHg 54%
    17:00 +12°C° 0 mm 9 mps 758 mmHg 56%
    18:00 +12°C° 0 mm 9 mps 758 mmHg 59%
    19:00 +11°C° 0 mm 8 mps 758 mmHg 62%
    20:00 +10°C° 0 mm 7 mps 759 mmHg 65%
    21:00 +9°C° 0 mm 5 mps 759 mmHg 68%
    22:00 +9°C° 0 mm 5 mps 759 mmHg 70%
    23:00 +8°C° 0 mm 4 mps 759 mmHg 72%

    Tomorrow, 21 March, Thursday

    Time Temperature Precipitation Wind Pressure Humidity
    00:00 +8°C° 0 mm 4 mps 759 mmHg 75%
    01:00 +8°C° 0.2 mm 4 mps 758 mmHg 76%
    02:00 +7°C° 0.2 mm 4 mps 758 mmHg 78%
    03:00 +7°C° 0.2 mm 4 mps 758 mmHg 79%
    04:00 +7°C° 0.2 mm 4 mps 758 mmHg 80%
    05:00 +7°C° 0.2 mm 4 mps 758 mmHg 80%
    06:00 +6°C° 0.2 mm 4 mps 758 mmHg 81%
    07:00 +8°C° 0.2 mm 4 mps 758 mmHg 75%
    08:00 +11°C° 0.2 mm 4 mps 758 mmHg 69%
    09:00 +13°C° 0.2 mm 5 mps 759 mmHg 63%
    10:00 +13°C° 0.4 mm 5 mps 758 mmHg 61%
    11:00 +14°C° 0.4 mm 5 mps 758 mmHg 58%
    12:00 +15°C° 0.4 mm 5 mps 758 mmHg 55%
    13:00 +15°C° 0.2 mm 6 mps 758 mmHg 57%
    14:00 +15°C° 0.2 mm 7 mps 757 mmHg 58%
    15:00 +15°C° 0.2 mm 8 mps 757 mmHg 59%
    16:00 +13°C° 0 mm 8 mps 757 mmHg 62%
    17:00 +12°C° 0 mm 8 mps 757 mmHg 65%
    18:00 +12°C° 0 mm 7 mps 757 mmHg 68%
    19:00 +11°C° 0 mm 6 mps 757 mmHg 72%
    20:00 +11°C° 0 mm 6 mps 758 mmHg 75%
    21:00 +10°C° 0 mm 5 mps 758 mmHg 79%
    22:00 +10°C° 0.2 mm 5 mps 758 mmHg 80%
    23:00 +12°C° 0.2 mm 5 mps 758 mmHg 81%

    Day after tomorrow, 22 March, Friday

    Time Temperature Precipitation Wind Pressure Humidity
    00:00 +12°C° 0.2 mm 5 mps 758 mmHg 82%
    01:00 +12°C° 0.6 mm 5 mps 758 mmHg 83%
    02:00 +12°C° 0.6 mm 5 mps 757 mmHg 84%
    03:00 +12°C° 0.6 mm 5 mps 757 mmHg 85%
    04:00 +12°C° 0.3 mm 5 mps 757 mmHg 87%
    05:00 +12°C° 0.3 mm 5 mps 757 mmHg 88%
    06:00 +12°C° 0.3 mm 5 mps 757 mmHg 89%
    07:00 +13°C° 0.2 mm 6 mps 757 mmHg 84%
    08:00 +13°C° 0.2 mm 6 mps 758 mmHg 80%
    09:00 +14°C° 0.2 mm 6 mps 758 mmHg 76%
    10:00 +15°C° 0.2 mm 6 mps 758 mmHg 72%
    11:00 +16°C° 0.2 mm 7 mps 758 mmHg 68%
    12:00 +17°C° 0.2 mm 7 mps 758 mmHg 65%
    13:00 +17°C° 0 mm 7 mps 757 mmHg 64%
    14:00 +17°C° 0 mm 7 mps 757 mmHg 63%
    15:00 +17°C° 0 mm 7 mps 756 mmHg 62%
    16:00 +16°C° 0 mm 7 mps 756 mmHg 66%
    17:00 +15°C° 0 mm 6 mps 756 mmHg 71%
    18:00 +14°C° 0 mm 6 mps 757 mmHg 75%
    19:00 +14°C° 0 mm 5 mps 757 mmHg 79%
    20:00 +13°C° 0 mm 5 mps 757 mmHg 82%
    21:00 +12°C° 0 mm 5 mps 758 mmHg 85%
    22:00 +12°C° 0 mm 4 mps 758 mmHg 86%
    23:00 +11°C° 0 mm 4 mps 758 mmHg 86%

    23 March, Saturday

    Time Temperature Precipitation Wind Pressure Humidity
    00:00 +11°C° 0 mm 3 mps 757 mmHg 87%
    01:00 +11°C° 0 mm 3 mps 757 mmHg 88%
    02:00 +10°C° 0 mm 3 mps 757 mmHg 88%
    03:00 +10°C° 0 mm 3 mps 756 mmHg 88%
    04:00 +10°C° 0 mm 3 mps 756 mmHg 89%
    05:00 +10°C° 0 mm 3 mps 756 mmHg 90%
    06:00 +10°C° 0 mm 3 mps 756 mmHg 90%
    07:00 +12°C° 0 mm 3 mps 756 mmHg 82%
    08:00 +13°C° 0 mm 3 mps 756 mmHg 74%
    09:00 +15°C° 0 mm 4 mps 757 mmHg 66%
    10:00 +17°C° 0 mm 4 mps 756 mmHg 59%
    11:00 +18°C° 0 mm 4 mps 756 mmHg 53%
    12:00 +19°C° 0 mm 5 mps 756 mmHg 46%
    13:00 +19°C° 0 mm 5 mps 755 mmHg 47%
    14:00 +20°C° 0 mm 6 mps 754 mmHg 47%
    15:00 +20°C° 0 mm 7 mps 753 mmHg 48%
    16:00 +18°C° 0 mm 7 mps 753 mmHg 55%
    17:00 +16°C° 0 mm 7 mps 753 mmHg 62%
    18:00 +15°C° 0 mm 8 mps 753 mmHg 69%
    19:00 +15°C° 0 mm 7 mps 753 mmHg 74%
    20:00 +14°C° 0 mm 6 mps 754 mmHg 79%
    21:00 +13°C° 0 mm 6 mps 754 mmHg 83%
    22:00 +13°C° 0 mm 5 mps 754 mmHg 85%
    23:00 +13°C° 0 mm 5 mps 753 mmHg 87%

    24 March, Sunday

    Time Temperature Precipitation Wind Pressure Humidity
    00:00 +12°C° 0 mm 4 mps 753 mmHg 89%
    01:00 +12°C° 0 mm 4 mps 753 mmHg 89%
    02:00 +12°C° 0 mm 3 mps 753 mmHg 90%
    03:00 +12°C° 0 mm 3 mps 752 mmHg 90%
    04:00 +13°C° 0 mm 2 mps 752 mmHg 89%
    05:00 +13°C° 0 mm 2 mps 752 mmHg 89%
    06:00 +12°C° 0 mm 2 mps 752 mmHg 88%
    07:00 +14°C° 0 mm 2 mps 752 mmHg 80%
    08:00 +15°C° 0 mm 2 mps 753 mmHg 71%
    09:00 +17°C° 0 mm 2 mps 753 mmHg 63%
    10:00 +18°C° 0 mm 2 mps 753 mmHg 60%
    11:00 +18°C° 0 mm 2 mps 753 mmHg 57%
    12:00 +19°C° 0 mm 2 mps 753 mmHg 54%
    13:00 +19°C° 0.2 mm 3 mps 753 mmHg 58%
    14:00 +18°C° 0.2 mm 4 mps 752 mmHg 61%
    15:00 +17°C° 0.2 mm 5 mps 752 mmHg 65%
    16:00 +16°C° 0.1 mm 5 mps 752 mmHg 68%
    17:00 +16°C° 0.1 mm 5 mps 752 mmHg 72%
    18:00 +15°C° 0.1 mm 6 mps 752 mmHg 76%
    19:00 +15°C° 0.1 mm 5 mps 752 mmHg 78%
    20:00 +15°C° 0.1 mm 4 mps 752 mmHg 81%
    21:00 +14°C° 0.1 mm 3 mps 753 mmHg 83%
    22:00 +14°C° 0 mm 3 mps 753 mmHg 85%
    23:00 +14°C° 0 mm 3 mps 752 mmHg 87%

    25 March, Monday

    Time Temperature Precipitation Wind Pressure Humidity
    00:00 +14°C° 0 mm 3 mps 752 mmHg 89%
    01:00 +13°C° 0.1 mm 3 mps 752 mmHg 91%
    02:00 +13°C° 0.1 mm 3 mps 752 mmHg 93%
    03:00 +13°C° 0.1 mm 3 mps 751 mmHg 94%
    04:00 +13°C° 0 mm 3 mps 752 mmHg 94%
    05:00 +13°C° 0 mm 3 mps 752 mmHg 93%
    06:00 +14°C° 0 mm 2 mps 752 mmHg 92%
    07:00 +15°C° 0.4 mm 2 mps 752 mmHg 86%
    08:00 +16°C° 0.4 mm 3 mps 752 mmHg 80%
    09:00 +17°C° 0.4 mm 3 mps 752 mmHg 74%
    10:00 +19°C° 0.1 mm 4 mps 752 mmHg 63%
    11:00 +21°C° 0.1 mm 5 mps 752 mmHg 53%
    12:00 +22°C° 0.1 mm 6 mps 752 mmHg 43%
    13:00 +22°C° 0 mm 7 mps 751 mmHg 46%
    14:00 +22°C° 0 mm 9 mps 751 mmHg 49%
    15:00 +22°C° 0 mm 10 mps 750 mmHg 51%
    16:00 +19°C° 0 mm 9 mps 750 mmHg 58%
    17:00 +18°C° 0 mm 9 mps 750 mmHg 64%
    18:00 +16°C° 0 mm 8 mps 750 mmHg 71%
    19:00 +16°C° 0 mm 7 mps 750 mmHg 75%
    20:00 +15°C° 0 mm 7 mps 751 mmHg 78%
    21:00 +14°C° 0 mm 6 mps 751 mmHg 82%
    22:00 +14°C° 0 mm 5 mps 751 mmHg 84%
    23:00 +14°C° 0 mm 4 mps 751 mmHg 86%
    Show more